Weather in Mikhaylovitsa

Russia / Kostroma Oblast     58°45′46″N   45°39′00″E
temp.,
°C
wind,
m/s
gust,
m/s
humid.,
%
clouds,
%
prec.,
mm/h
press.,
hPa
HPBL,
m
10 may, mon
mon1000:00+9nnw4895100 5.3 1013305
03:00+7nnw4995100 5.3 1016474
06:00+6nnw41095100 1.6 1019553
09:00+6n41095100 3.3 1022521
12:00+6n4894100 1.4 1025558
15:00+7nne2790100 1.4 1026457
18:00+10ne25814 0.0 1027751
21:00+5ne11954 0.0 102812
11 may, tue
tue1100:00+4ne11956 0.0 103010
03:00+3nne22955 0.0 103123
06:00+6ne238311 0.0 1031143
09:00+12ene225635 0.0 1031589
12:00+17ne22405 0.0 10311024
15:00+18e1138100 0.0 10301050
18:00+16e115670 0.0 103020
21:00+10ese116836 0.0 103110
12 may, wed
wed1200:00+9se11705 0.0 103110
03:00+7ene11745 0.0 103110
06:00+11ene12675 0.0 1032101
09:00+17e23460 0.0 1031553
12:00+21ese23330 0.0 10301034
15:00+22se23310 0.0 10291119
18:00+20e22550 0.0 102842
21:00+14e22717 0.0 102833
13 may, thu
thu1300:00+12ese2273100 0.0 102929
03:00+11e22865 0.0 102922
06:00+15ese248012 0.0 1028154
09:00+21se355384 0.0 1028637
12:00+24sse35389 0.0 10262123
15:00+24sse46385 0.0 10252226
18:00+22sse265764 0.0 1024223
21:00+17se287296 0.0 1024154
14 may, fri
fri1400:00+15s2477100 0.0 102479
03:00+15sse227488 0.0 102435
06:00+15sse297982 0.1 1024281
09:00+21s475593 0.2 1023906
12:00+24s5848100 0.0 10221392
15:00+24ssw4846100 0.0 10201718
18:00+23s2458100 0.0 1019121
21:00+17s31074100 0.0 1019205